Snowfall_Accumulation
0.0 0.0 0.0 0.0 0.0 0.0 0.0 0.0 0.0 0.0 0.0 0.0 0.0 0.0 0.0 0.0 0.0 0.0 0.0 0.0 0.0 0.0 0.0 0.0 0.0 0.0 0.0 0.0 0.0 0.0 0.0 0.0 0.0 0.0 0.0 0.0 0.0 0.0 0.0 0.0 0.0 0.0 0.0
0.0 0.0 0.0 0.0 0.0 0.0 0.0 0.0 0.0 0.0 0.0 0.0 0.0 0.0 0.0 0.0 0.0 0.0 0.0 0.0 0.0 0.0 0.0 0.0 0.0 0.0 0.0 0.0 0.0 0.0 0.0 0.0 0.0 0.0 0.0 0.0 0.0 0.0 0.0 0.0 0.0 0.0 0.0
0.0 0.0 0.0 0.0 0.0 0.0 0.0 0.0 0.0 0.0 0.0 0.0 0.0 0.0 0.0 0.0 0.0 0.0 0.0 0.0 0.0 0.0 0.0 0.0 0.0 0.0 0.0 0.0 0.0 0.0 0.0 0.0 0.0 0.0 0.0 0.0 0.0 0.0 0.0 0.0 0.0 0.0 0.0
0.0 0.0 0.0 0.0 0.0 0.0 0.0 0.0 0.0 0.0 0.0 0.0 0.0 0.0 0.0 0.0 0.0 0.0 0.0 0.0 0.0 0.0 0.0 0.0 0.0 0.0 0.0 0.0 0.0 0.0 0.0 0.0 0.0 0.0 0.0 0.0 0.0 0.0 0.0 0.0 0.0 0.0 0.0
0.0 0.0 0.0 0.0 0.0 0.0 0.0 0.0 0.0 0.0 0.0 0.0 0.0 0.0 0.0 0.0 0.0 0.0 0.0 0.0 0.0 0.0 0.0 0.0 0.0 0.0 0.0 0.0 0.0 0.0 0.0 0.0 0.0 0.0 0.0 0.0 0.0 0.0 0.0 0.0 0.0 0.0 0.0
0.0 0.0 0.0 0.0 0.0 0.0 0.0 0.0 0.0 0.0 0.0 0.0 0.0 0.0 0.0 0.0 0.0 0.0 0.0 0.0 0.0 0.0 0.0 0.0 0.0 0.0 0.0 0.0 0.0 0.0 0.0 0.0 0.0 0.0 0.0 0.0 0.0 0.0 0.0 0.0 0.0 0.0 0.0
0.0 0.0 0.0 0.0 0.0 0.0 0.0 0.0 0.0 0.0 0.0 0.0 0.0 0.0 0.0 0.0 0.0 0.0 0.0 0.0 0.0 0.0 0.0 0.0 0.0 0.0 0.0 0.0 0.0 0.0 0.0 0.0 0.0 0.0 0.0 0.0 0.0 0.0 0.0 0.0 0.0 0.0 0.0
0.0 0.0 0.0 0.0 0.0 0.0 0.0 0.0 0.0 0.0 0.0 0.0 0.0 0.0 0.0 0.0 0.0 0.0 0.0 0.0 0.0 0.0 0.0 0.0 0.0 0.0 0.0 0.0 0.0 0.0 0.0 0.0 0.0 0.0 0.0 0.0 0.0 0.0 0.0 0.0 0.0 0.0 0.0
0.0 0.0 0.0 0.0 0.0 0.0 0.0 0.0 0.0 0.0 0.0 0.0 0.0 0.0 0.0 0.0 0.0 0.0 0.0 0.0 0.0 0.0 0.0 0.0 0.0 0.0 0.0 0.0 0.0 0.0 0.0 0.0 0.0 0.0 0.0 0.0 0.0 0.0 0.0 0.0 0.1 0.1 0.3
0.0 0.0 0.0 0.0 0.0 0.0 0.0 0.0 0.0 0.0 0.0 0.0 0.0 0.0 0.0 0.0 0.0 0.0 0.0 0.0 0.0 0.0 0.0 0.0 0.0 0.0 0.0 0.0 0.0 0.0 0.0 0.0 0.0 0.0 0.0 0.0 0.0 0.1 0.1 0.0 0.0 0.1 0.3
0.0 0.0 0.0 0.0 0.0 0.0 0.0 0.0 0.0 0.0 0.0 0.0 0.0 0.0 0.0 0.0 0.0 0.0 0.0 0.0 0.0 0.0 0.0 0.0 0.0 0.0 0.0 0.0 0.0 0.0 0.0 0.0 0.0 0.0 0.0 0.0 0.1 0.1 0.3 0.1 0.1 0.1 0.5
0.0 0.0 0.0 0.0 0.0 0.0 0.0 0.0 0.0 0.0 0.0 0.0 0.0 0.0 0.0 0.0 0.0 0.0 0.0 0.0 0.0 0.0 0.0 0.0 0.0 0.0 0.0 0.0 0.0 0.0 0.0 0.0 0.0 0.0 0.0 0.3 0.6 0.6 0.4 0.1 0.1 0.3 0.1
0.0 0.0 0.0 0.0 0.0 0.0 0.0 0.0 0.0 0.0 0.0 0.0 0.0 0.0 0.0 0.0 0.0 0.0 0.0 0.0 0.0 0.0 0.0 0.0 0.0 0.0 0.0 0.0 0.0 0.0 0.0 0.0 0.0 0.2 0.4 0.4 0.1 0.1 0.0 0.0 0.1 0.0 0.0
0.0 0.0 0.0 0.0 0.0 0.0 0.0 0.0 0.0 0.1 0.1 0.1 0.0 0.0 0.0 0.0 0.0 0.0 0.0 0.0 0.0 0.0 0.0 0.0 0.0 0.0 0.0 0.0 0.2 0.2 0.2 0.0 0.0 0.1 0.2 0.1 0.1 0.0 0.0 0.0 0.0 0.0 0.4
0.1 0.0 1.1 0.0 0.0 0.0 0.0 0.0 0.1 0.0 0.4 0.5 0.3 0.3 0.3 0.2 0.1 0.0 0.0 0.0 0.0 0.0 0.0 0.0 0.0 0.0 0.3 0.2 0.1 0.1 0.1 0.3 0.1 0.0 0.0 0.0 0.1 0.0 1.7 0.3 0.3 0.2 1.6
1.6 2.3 4.7 2.8 7.7 5.5 5.2 5.0 3.2 2.7 0.0 0.0 0.0 0.3 0.1 0.1 0.0 0.0 0.0 0.0 0.8 0.8 0.5 0.5 0.5 0.6 0.4 0.3 0.3 0.3 0.2 0.0 0.0 0.0 0.0 0.0 0.0 0.0 0.0 0.5 0.6 2.1 2.4
1.5 2.2 3.2 6.8 8.9 10.0 12.1 6.7 5.5 3.5 3.8 4.1 2.3 3.0 3.5 3.0 0.2 3.7 3.9 2.2 1.5 2.1 2.0 1.8 1.4 0.9 0.5 0.8 0.6 0.3 0.2 0.2 0.3 0.3 0.2 0.1 0.2 0.3 0.2 0.1 1.0 0.9 1.7
1.3 2.8 4.4 5.4 9.1 10.3 11.7 13.3 12.6 9.4 4.6 6.9 6.9 9.1 11.7 9.6 10.1 10.9 8.4 7.2 5.7 4.5 5.0 3.6 2.8 2.4 2.1 1.5 2.1 1.8 1.4 0.9 0.6 0.4 0.2 0.1 0.5 0.1 0.6 0.6 0.6 0.7 0.3
1.9 3.2 5.3 7.3 7.8 10.2 11.8 13.3 13.2 13.7 13.4 12.4 12.4 12.5 12.7 12.0 11.5 11.7 11.0 10.2 9.3 7.7 7.7 6.2 6.7 5.9 5.1 4.9 4.1 3.0 3.3 3.0 2.4 1.0 0.8 0.8 0.6 0.6 0.7 0.3 0.4 0.5 0.4
2.7 3.1 3.7 5.4 7.8 10.7 11.5 12.4 13.6 15.0 15.6 15.7 16.2 17.0 13.9 11.1 12.2 14.5 14.9 15.1 16.6 17.3 16.6 14.7 13.5 13.1 12.0 11.2 10.2 8.6 7.1 6.6 5.4 3.8 2.6 1.5 1.1 0.7 0.7 0.5 0.4 0.3 0.2
2.3 2.3 3.1 4.0 4.6 6.4 8.4 10.1 11.1 11.8 13.6 14.6 15.9 17.2 18.0 17.4 18.4 18.3 18.1 18.1 17.3 16.7 16.8 15.7 14.9 13.2 12.5 11.8 11.3 11.0 10.1 9.7 8.2 6.3 4.6 3.1 2.0 1.6 1.1 0.8 0.5 0.3 0.3
2.1 2.4 3.4 4.9 5.0 5.7 6.3 6.9 6.9 7.8 9.5 10.8 12.7 13.4 12.6 13.4 14.7 15.7 16.3 16.1 15.4 13.8 12.7 11.5 11.6 11.6 11.4 10.6 9.6 9.1 8.6 8.4 8.1 6.9 5.4 3.7 2.6 1.8 1.3 1.0 0.9 0.7 0.6
1.0 1.8 2.1 2.9 3.5 4.1 5.1 6.2 5.8 5.6 6.6 7.4 8.9 10.1 10.8 11.1 11.4 11.7 11.9 12.6 12.7 13.0 12.5 11.0 9.8 9.5 8.5 8.0 7.1 6.2 6.0 6.3 5.7 4.8 4.5 3.9 3.2 2.5 1.9 1.5 1.0 0.9 0.7
0.5 0.8 1.3 2.3 2.7 2.9 3.7 4.7 4.9 4.8 5.5 6.6 7.3 8.0 9.1 10.2 10.8 11.1 10.9 10.8 9.8 9.6 8.9 8.1 7.5 6.8 6.3 6.1 5.8 5.6 5.5 5.2 4.6 4.0 3.1 2.6 2.3 1.9 1.5 1.2 0.9 0.7 0.5
0.5 0.6 0.9 1.3 1.8 2.2 2.8 3.2 3.7 4.2 4.3 4.8 5.6 6.1 6.8 7.2 7.5 8.1 8.4 8.3 8.2 7.6 7.7 7.5 7.4 7.0 6.5 6.1 5.7 5.2 4.6 4.1 3.6 3.1 2.6 2.2 1.8 1.4 1.0 0.8 0.6 0.5 0.2
0.5 0.5 0.7 0.7 1.0 1.2 1.5 2.0 2.6 3.2 3.5 3.6 3.8 4.3 4.8 5.1 5.4 5.6 5.9 5.7 5.5 5.5 5.3 5.2 4.9 4.6 4.3 4.2 3.9 3.5 3.2 2.9 2.5 1.9 1.3 1.1 1.0 0.9 0.8 0.6 0.5 0.3 0.2